EW0859 Weather Reports


time (UTC)temp
F
wind
direction
speed
knots
gust
knots
rain 1hr
in
rain 24hr
in
rain mn
in
humidity
%
barometer
mb
20260508014600 67 271 15.6 22.6 0.00 0.00 0.00 21 1010.4
20260508013104 68 265 16.5 24.3 0.00 0.00 0.00 19 1010.6
20260508011556 68 294 15.6 24.3 0.00 0.00 0.00 19 1010.6
20260508010054 69 313 15.6 22.6 0.00 0.00 0.00 21 1010.7
20260508004548 70 294 15.6 24.3 0.00 0.00 0.00 22 1010.8
20260508003047 71 287 14.8 24.3 0.00 0.00 0.00 18 1010.8
20260508001554 71 273 12.2 21.7 0.00 0.00 0.00 22 1010.8
20260508000048 70 253 13.9 20.9 0.00 0.00 0.00 23 1010.9
20260507234545 72 258 13.9 21.7 0.00 0.00 0.00 21 1010.7
20260507233044 71 249 15.6 24.3 0.00 0.00 0.00 18 1010.8
20260507231545 72 267 16.5 22.6 0.00 0.00 0.00 19 1011.0
20260507230043 72 284 17.4 23.5 0.00 0.00 0.00 20 1011.0
20260507224540 72 274 13.9 21.7 0.00 0.00 0.00 20 1011.1
20260507223040 71 268 12.2 19.1 0.00 0.00 0.00 29 1011.2
20260507221537 71 269 13.0 18.2 0.00 0.00 0.00 28 1011.4
20260507220036 71 250 11.3 17.4 0.00 0.00 0.00 25 1011.6
20260507214539 71 247 14.8 19.1 0.00 0.00 0.00 22 1011.7
20260507213042 72 304 12.2 18.2 0.00 0.00 0.00 26 1011.8
20260507211544 71 263 12.2 18.2 0.00 0.00 0.00 30 1011.9
20260507210032 70 293 10.4 18.2 0.00 0.00 0.00 28 1012.1
20260507204528 71 267 12.2 17.4 0.00 0.00 0.00 27 1012.3
20260507203026 70 277 11.3 18.2 0.00 0.00 0.00 21 1012.4
20260507201535 69 240 10.4 15.6 0.00 0.00 0.00 30 1012.6
20260507200028 68 245 8.7 16.5 0.00 0.00 0.00 32 1012.7
20260507194521 67 267 9.6 17.4 0.00 0.00 0.00 37 1012.8
20260507193022 66 252 10.4 16.5 0.00 0.00 0.00 37 1012.8
20260507191522 66 275 10.4 14.8 0.00 0.00 0.00 40 1012.9
20260507190017 65 281 11.3 15.6 0.00 0.00 0.00 41 1012.9
20260507184513 64 263 11.3 16.5 0.00 0.00 0.00 44 1013.1
20260507183011 63 278 10.4 14.8 0.00 0.00 0.00 46 1013.2
20260507181508 62 306 8.7 15.6 0.00 0.00 0.00 50 1013.4
20260507180017 61 307 9.6 15.6 0.00 0.00 0.00 49 1013.6
20260507174512 60 240 7.0 15.6 0.00 0.00 0.00 52 1013.7
20260507173006 59 259 8.7 16.5 0.00 0.00 0.00 51 1013.7
20260507171503 59 272 9.6 13.9 0.00 0.00 0.00 52 1013.6
20260507170101 59 277 12.2 17.4 0.00 0.00 0.00 52 1013.6
20260507164557 57 232 9.6 18.2 0.00 0.00 0.00 56 1013.8
20260507163058 57 251 12.2 18.2 0.00 0.00 0.00 54 1013.7
20260507161558 56 274 12.2 18.2 0.00 0.00 0.00 55 1014.0
20260507160055 56 275 12.2 16.5 0.00 0.00 0.00 57 1014.1
20260507154555 55 265 13.9 20.0 0.00 0.00 0.00 59 1014.1
20260507153102 55 276 14.8 20.0 0.00 0.00 0.00 61 1013.9
20260507151552 54 270 14.8 21.7 0.00 0.00 0.00 60 1014.0
20260507150055 54 283 13.0 19.1 0.00 0.00 0.00 60 1014.0
20260507144548 54 257 11.3 16.5 0.00 0.00 0.00 63 1013.9
20260507143100 53 268 13.9 20.9 0.00 0.00 0.00 67 1013.9
20260507141548 52 264 11.3 15.6 0.00 0.00 0.00 73 1013.8
20260507140044 51 263 11.3 17.4 0.00 0.00 0.00 74 1013.6
20260507134543 50 271 8.7 12.2 0.00 0.00 0.00 73 1013.7
20260507133047 49 284 6.1 13.0 0.00 0.00 0.00 75 1013.6
20260507131548 49 264 9.6 12.2 0.00 0.00 0.00 75 1013.4
20260507130057 49 257 8.7 13.0 0.00 0.00 0.00 76 1013.4
20260507124540 49 273 8.7 13.0 0.00 0.00 0.00 77 1013.5
20260507123038 49 273 7.8 12.2 0.00 0.00 0.00 78 1013.5
20260507121534 50 255 10.4 15.6 0.00 0.00 0.00 77 1013.4
20260507120033 51 263 13.9 17.4 0.00 0.00 0.00 76 1013.5
20260507114528 51 271 8.7 12.2 0.00 0.00 0.00 76 1013.6
20260507113027 52 271 11.3 15.6 0.00 0.00 0.00 75 1013.5
20260507111523 52 280 12.2 16.5 0.00 0.00 0.00 74 1013.4
20260507110022 52 277 8.7 13.0 0.00 0.00 0.00 75 1013.4
20260507104519 53 253 8.7 17.4 0.00 0.00 0.00 75 1013.2
20260507103016 53 256 12.2 17.4 0.00 0.00 0.00 74 1013.1
20260507101517 54 254 11.3 17.4 0.00 0.00 0.00 74 1012.9
20260507100016 54 247 8.7 16.5 0.00 0.00 0.00 75 1012.9
20260507094515 54 246 12.2 19.1 0.00 0.00 0.00 75 1012.7
20260507093015 54 240 14.8 22.6 0.00 0.00 0.00 76 1012.6
20260507091510 55 240 16.5 22.6 0.00 0.00 0.00 75 1012.7
20260507090010 55 237 16.5 26.9 0.00 0.00 0.00 74 1012.9
20260507084524 56 249 20.0 27.8 0.00 0.00 0.00 73 1012.6
20260507083006 56 255 18.2 26.1 0.00 0.00 0.00 74 1012.2
20260507081504 56 253 20.0 26.9 0.00 0.00 0.00 73 1012.4
20260507080003 56 263 16.5 21.7 0.00 0.00 0.00 72 1012.5
20260507074605 56 224 11.3 17.4 0.00 0.00 0.00 73 1012.6
20260507073055 57 239 12.2 17.4 0.00 0.00 0.00 72 1012.8
20260507071559 57 223 9.6 16.5 0.00 0.00 0.00 72 1013.0
20260507064555 57 242 7.8 13.9 0.00 0.00 0.00 71 1013.1
20260507063049 58 229 7.8 13.9 0.00 0.00 0.00 70 1013.1
20260507061549 58 221 9.6 15.6 0.00 0.00 0.00 70 1013.1
20260507060047 58 219 7.8 15.6 0.00 0.00 0.00 70 1013.0
20260507054606 58 223 7.8 16.5 0.00 0.00 0.00 69 1012.9
20260507053056 58 213 10.4 16.5 0.00 0.00 0.00 68 1012.9
20260507051550 58 228 13.0 17.4 0.00 0.00 0.00 67 1012.8
20260507050050 58 242 12.2 20.9 0.00 0.00 0.00 69 1012.9
20260507044552 59 272 13.9 23.5 0.00 0.00 0.00 67 1012.6
20260507043044 59 253 16.5 25.2 0.00 0.00 0.00 67 1012.6
20260507041557 59 265 15.6 23.5 0.00 0.00 0.00 67 1012.7
20260507040043 59 242 15.6 20.9 0.00 0.00 0.00 67 1012.6
20260507034542 60 256 13.0 22.6 0.00 0.00 0.00 68 1012.4
20260507033043 60 269 16.5 23.5 0.00 0.00 0.00 67 1012.2
20260507031542 61 244 15.6 22.6 0.00 0.00 0.00 67 1012.1
20260507030041 61 252 17.4 26.1 0.00 0.00 0.00 65 1012.1
20260507024540 62 246 14.8 21.7 0.00 0.00 0.00 65 1012.3
20260507023040 61 245 15.6 24.3 0.00 0.00 0.00 66 1012.3
20260507021540 62 236 18.2 27.8 0.00 0.00 0.00 65 1012.0
20260507020050 62 240 20.0 27.8 0.00 0.00 0.00 65 1011.8